, MO

(GMT )
Kansas City

Weather History for KMKC - October, 2012

Change the Weather History Date:

Thursday, October 25, 2012

  Actual Average Record
Temperature  
Mean Temperature 56 °F -  
Max Temperature 73 °F 62 °F 86 °F (2011)
Min Temperature 39 °F 46 °F 30 °F (2013)
Degree Days  
Heating Degree Days 9    
Growing Degree Days 6 (Base 50)    
Moisture  
Dew Point 44 °F    
Average Humidity 74    
Maximum Humidity 94    
Minimum Humidity 58    
Precipitation  
Precipitation 0.09 in - - ()
Sea Level Pressure  
Sea Level Pressure 29.91 in    
Wind  
Wind Speed 15 mph (NW)    
Max Wind Speed 22 mph    
Max Gust Speed 33 mph    
Visibility 9 miles    
Events Rain , Thunderstorm    
Averages and records for this station are not official NWS values.
T = Trace of Precipitation, MM = Missing Value Source: NWS Daily Summary

Daily Weather History Graph

Daily Weather History Graph

Search for Another Location

Airport or City:

Trip Planner

Search our weather history database for the weather conditions in past years. The results will help you decide how hot, cold, wet, or windy it might be!

Date:

Astronomy

Oct. 25, 2012 Rise Set
Actual Time 7:38 AM CDT 6:25 PM CDT
Civil Twilight 7:11 AM CDT 6:52 PM CDT
Nautical Twilight 6:40 AM CDT 7:23 PM CDT
Astronomical Twilight 6:09 AM CDT 7:54 PM CDT
Moon 4:10 PM CDT (10/25) 3:37 AM CDT (10/25)
Length of Visible Light 11h 41m
Length of Day
10h 46m
Waxing Gibbous, 84% of the Moon is Illuminated
Oct 25
Waxing Gibbous
Oct 29
Full
Nov 6
Last Quarter
Nov 13
New
Nov 20
First Quarter

Hourly Weather History & Observations

Time (CDT) Temp. Windchill Dew Point Humidity Pressure Visibility Wind Dir Wind Speed Gust Speed Precip Events Conditions
12:54 AM 73.9 °F - 60.1 °F 62% 29.68 in 10.0 mi South 15.0 mph 20.7 mph N/A   Overcast
1:54 AM 73.0 °F - 60.1 °F 64% 29.67 in 10.0 mi South 16.1 mph 24.2 mph N/A   Overcast
2:54 AM 72.0 °F - 60.1 °F 66% 29.64 in 10.0 mi South 16.1 mph 21.9 mph N/A   Mostly Cloudy
3:54 AM 73.0 °F - 61.0 °F 66% 29.63 in 10.0 mi SSW 19.6 mph 28.8 mph N/A   Overcast
4:54 AM 73.0 °F - 62.1 °F 68% 29.63 in 10.0 mi South 18.4 mph 32.2 mph N/A   Overcast
5:54 AM 73.0 °F - 62.1 °F 68% 29.63 in 10.0 mi South 21.9 mph 29.9 mph N/A   Overcast
6:42 AM 73.4 °F - 62.6 °F 69% 29.66 in 10.0 mi SSW 15.0 mph 31.1 mph N/A   Overcast
6:54 AM 73.0 °F - 62.1 °F 68% 29.64 in 10.0 mi SSW 17.3 mph 33.4 mph N/A   Overcast
7:23 AM 57.2 °F - 53.6 °F 88% 29.69 in 6.0 mi NW 15.0 mph 23.0 mph 0.02 in Rain Rain
7:26 AM 55.4 °F - 53.6 °F 94% 29.69 in 4.0 mi NW 16.1 mph 24.2 mph 0.03 in Rain Heavy Rain
7:33 AM 55.4 °F - 51.8 °F 88% 29.70 in 7.0 mi NW 13.8 mph 24.2 mph 0.03 in Rain , Thunderstorm Light Rain
7:44 AM 53.6 °F - 50.0 °F 88% 29.73 in 8.0 mi NW 15.0 mph 23.0 mph 0.04 in Rain , Thunderstorm Light Rain
7:54 AM 52.0 °F - 48.9 °F 89% 29.75 in 10.0 mi WNW 10.4 mph 18.4 mph 0.04 in Thunderstorm Overcast
8:06 AM 50.0 °F - 46.4 °F 87% 29.77 in 8.0 mi WNW 12.7 mph 23.0 mph 0.00 in Rain Light Rain
8:33 AM 48.2 °F - 44.6 °F 87% 29.79 in 5.0 mi WNW 12.7 mph 20.7 mph 0.01 in Rain Light Rain
8:54 AM 48.0 °F - 45.0 °F 89% 29.80 in 6.0 mi WNW 11.5 mph - 0.01 in   Overcast
9:54 AM 46.0 °F 39.9 °F 43.0 °F 89% 29.86 in 2.5 mi NW 13.8 mph 20.7 mph 0.00 in Rain Light Rain
10:27 AM 44.6 °F 37.8 °F 41.0 °F 87% 29.90 in 3.0 mi NW 15.0 mph 26.5 mph 0.02 in Rain Light Rain
10:46 AM 44.6 °F 37.2 °F 41.0 °F 87% 29.91 in 6.0 mi NW 17.3 mph 23.0 mph 0.02 in   Overcast
10:54 AM 45.0 °F 38.2 °F 41.0 °F 86% 29.91 in 9.0 mi NW 15.0 mph 23.0 mph 0.02 in Rain Light Rain
11:54 AM 45.0 °F 38.5 °F 39.9 °F 82% 29.95 in 10.0 mi NW 13.8 mph 23.0 mph 0.02 in   Overcast
12:26 PM 44.6 °F 38.1 °F 39.2 °F 81% 29.97 in 10.0 mi NW 13.8 mph 24.2 mph N/A   Overcast
12:54 PM 43.0 °F 35.4 °F 37.9 °F 82% 29.99 in 10.0 mi NW 16.1 mph 26.5 mph N/A   Overcast
1:17 PM 42.8 °F 34.8 °F 37.4 °F 81% 30.00 in 10.0 mi NW 17.3 mph 26.5 mph N/A   Overcast
1:54 PM 45.0 °F 39.3 °F 37.0 °F 74% 30.01 in 10.0 mi NW 11.5 mph 20.7 mph N/A   Overcast
2:54 PM 44.6 °F 38.4 °F 37.4 °F 76% 30.05 in 10.0 mi NNW 12.7 mph 24.2 mph N/A   Overcast
3:54 PM 46.9 °F - 37.0 °F 68% 30.06 in 10.0 mi North 13.8 mph 20.7 mph N/A   Overcast
4:18 PM 48.2 °F - 35.6 °F 62% 30.08 in 10.0 mi North 13.8 mph 21.9 mph N/A   Overcast
4:54 PM 48.9 °F - 36.0 °F 61% 30.09 in 10.0 mi North 8.1 mph 16.1 mph N/A   Overcast
5:54 PM 48.0 °F - 34.0 °F 58% 30.14 in 10.0 mi North 12.7 mph 21.9 mph N/A   Overcast
6:54 PM 46.9 °F - 33.1 °F 59% 30.17 in 10.0 mi North 10.4 mph 21.9 mph N/A   Overcast
7:54 PM 46.0 °F 39.9 °F 32.0 °F 58% 30.22 in 10.0 mi North 13.8 mph - N/A   Overcast
8:54 PM 43.0 °F 36.0 °F 30.9 °F 62% 30.25 in 10.0 mi NNW 13.8 mph 23.0 mph N/A   Overcast
9:15 PM 42.8 °F 36.2 °F 30.2 °F 61% 30.25 in 10.0 mi NNW 12.7 mph 17.3 mph N/A   Overcast
9:54 PM 42.1 °F 36.6 °F 30.0 °F 62% 30.28 in 10.0 mi NNW 9.2 mph 19.6 mph N/A   Overcast
10:54 PM 39.9 °F 32.9 °F 28.0 °F 63% 30.31 in 10.0 mi North 11.5 mph 21.9 mph N/A   Overcast
11:54 PM 39.9 °F 31.4 °F 28.0 °F 63% 30.30 in 10.0 mi North 16.1 mph 23.0 mph N/A   Overcast